Location: Newark
(39.6867°N, 100.6772°W)
Time: 00:29:16
(UTC+00:00)

Vanguard 1 - Pass Details

Date: 21 October 2019
Orbit: 652 x 3831 km, 34.2° (Epoch: 11 November)

Event Time Altitude Azimuth Distance (km) Brightness Sun altitude
Rises 07:54:57 0° 280° (W) 6,194 - -55.1°
Reaches altitude 10° 07:59:07 10° 271° (W) 5,580 - -54.5°
Maximum altitude 08:14:17 34° 216° (SW) 4,897 - -52.5°
Exits shadow 08:30:02 16° 168° (SSE) 6,432 13.9 -50.2°
Drops below altitude 10° 08:33:22 10° 162° (SSE) 6,887 14.2 -49.7°
Sets 08:39:29 0° 154° (SSE) 7,761 14.6 -48.8°
